Location: Waco, TX
(31.5480°N, 97.1670°W)
Time: 22:57:03
(UTC-05:00)

ISS - Pass Details

Date: 20 September 2018
Orbit: 403 x 409 km, 51.6° (Epoch: 24 September)

Event Time Altitude Azimuth Distance (km) Brightness Sun altitude
Rises 19:37:01 0° 185° (S) 2,315 0.0 -2.8°
Reaches altitude 10° 19:39:55 10° 156° (SSE) 1,460 -1.3 -3.4°
Maximum altitude 19:41:32 13° 126° (SE) 1,287 -1.8 -3.8°
Drops below altitude 10° 19:43:10 10° 96° (E) 1,464 -1.7 -4.1°
Enters shadow 19:44:47 - 77° (ENE) 1,889 -1.1 -4.4°
Sets 19:46:05 0° 68° (ENE) 2,327 - -4.7°
